�������l�o���
Date,Time,MP-1(��Sv/h),MP-2(��Sv/h),MP-3(��Sv/h),MP-4(��Sv/h),MP-5(��Sv/h),MP-6(��Sv/h),MP-7(��Sv/h),����,����(m/s),���J
2020/07/21,00:00,0.167,0.152,0.246,0.236,0.244,0.131,0.080,-,CALM,��
2020/07/21,00:10,0.167,0.152,0.248,0.238,0.241,0.130,0.080,-,CALM,��
2020/07/21,00:20,0.168,0.153,0.247,0.237,0.243,0.131,0.080,-,CALM,��
2020/07/21,00:30,0.166,0.152,0.249,0.235,0.243,0.131,0.080,��,0.8,��
2020/07/21,00:40,0.168,0.153,0.246,0.238,0.242,0.130,0.081,-,CALM,��
2020/07/21,00:50,0.168,0.152,0.247,0.235,0.243,0.132,0.080,-,CALM,��
2020/07/21,01:00,0.167,0.152,0.249,0.238,0.241,0.130,0.079,��,1.2,��
2020/07/21,01:10,0.168,0.152,0.246,0.237,0.242,0.130,0.080,��,1.1,��
2020/07/21,01:20,0.165,0.152,0.248,0.236,0.243,0.131,0.081,��,0.9,��
2020/07/21,01:30,0.168,0.152,0.246,0.238,0.240,0.131,0.081,���쓌,0.9,��
2020/07/21,01:40,0.167,0.152,0.246,0.235,0.244,0.130,0.080,���쓌,0.9,��
2020/07/21,01:50,0.168,0.153,0.248,0.239,0.240,0.131,0.081,-,CALM,��
2020/07/21,02:00,0.168,0.152,0.246,0.237,0.241,0.130,0.081,-,CALM,��
2020/07/21,02:10,0.167,0.153,0.247,0.238,0.243,0.131,0.080,��,0.8,��
2020/07/21,02:20,0.168,0.152,0.246,0.237,0.241,0.130,0.080,��,0.7,��
2020/07/21,02:30,0.167,0.153,0.248,0.236,0.242,0.131,0.079,-,CALM,��
2020/07/21,02:40,0.167,0.153,0.247,0.237,0.241,0.131,0.081,-,CALM,��
2020/07/21,02:50,0.168,0.153,0.246,0.236,0.242,0.130,0.080,-,CALM,��
2020/07/21,03:00,0.166,0.153,0.249,0.238,0.242,0.131,0.080,-,CALM,��
2020/07/21,03:10,0.168,0.152,0.246,0.237,0.240,0.131,0.081,��,0.8,��
2020/07/21,03:20,0.167,0.153,0.249,0.236,0.242,0.132,0.080,���쓌,0.6,��
2020/07/21,03:30,0.168,0.152,0.246,0.238,0.240,0.132,0.080,-,CALM,��
2020/07/21,03:40,0.167,0.152,0.248,0.236,0.241,0.131,0.080,-,CALM,��
2020/07/21,03:50,0.167,0.152,0.247,0.238,0.242,0.131,0.080,��,1.0,��
2020/07/21,04:00,0.168,0.153,0.246,0.236,0.239,0.130,0.080,�쓌,1.0,��
2020/07/21,04:10,0.166,0.152,0.248,0.238,0.242,0.130,0.080,-,CALM,��
2020/07/21,04:20,0.167,0.152,0.245,0.237,0.241,0.131,0.080,�쓌,0.7,��
2020/07/21,04:30,0.167,0.153,0.247,0.235,0.241,0.130,0.080,-,CALM,��
2020/07/21,04:40,0.167,0.152,0.245,0.237,0.242,0.131,0.080,-,CALM,��
2020/07/21,04:50,0.167,0.152,0.248,0.234,0.241,0.131,0.081,-,CALM,��
2020/07/21,05:00,0.166,0.151,0.247,0.237,0.242,0.131,0.080,-,CALM,��
2020/07/21,05:10,0.168,0.153,0.247,0.236,0.241,0.132,0.080,-,CALM,��
2020/07/21,05:20,0.166,0.151,0.247,0.235,0.241,0.130,0.080,-,CALM,��
2020/07/21,05:30,0.166,0.151,0.245,0.239,0.244,0.130,0.080,�k��,0.8,��
2020/07/21,05:40,0.168,0.153,0.249,0.236,0.240,0.131,0.080,-,CALM,��
2020/07/21,05:50,0.167,0.153,0.245,0.237,0.242,0.131,0.080,-,CALM,��
2020/07/21,06:00,0.167,0.152,0.247,0.237,0.242,0.131,0.080,�쓌,1.7,��
2020/07/21,06:10,0.167,0.152,0.247,0.235,0.240,0.131,0.081,�쓌,1.4,��
2020/07/21,06:20,0.168,0.152,0.246,0.238,0.242,0.131,0.080,�쓌,1.4,��
2020/07/21,06:30,0.169,0.152,0.247,0.235,0.240,0.131,0.080,�쓌,1.2,��
2020/07/21,06:40,0.166,0.152,0.246,0.238,0.241,0.130,0.081,��쓌,1.1,��
2020/07/21,06:50,0.167,0.152,0.248,0.235,0.241,0.131,0.081,�쓌,1.3,��
2020/07/21,07:00,0.168,0.151,0.246,0.236,0.240,0.131,0.080,��쓌,1.5,��
2020/07/21,07:10,0.165,0.152,0.245,0.237,0.242,0.130,0.081,��쓌,1.0,��
2020/07/21,07:20,0.168,0.151,0.247,0.235,0.239,0.131,0.080,��쓌,1.0,��
2020/07/21,07:30,0.166,0.153,0.245,0.237,0.241,0.130,0.081,��쓌,1.7,��
2020/07/21,07:40,0.167,0.151,0.247,0.235,0.242,0.131,0.080,�쓌,1.9,��
2020/07/21,07:50,0.167,0.151,0.247,0.236,0.240,0.131,0.080,�쓌,2.0,��
2020/07/21,08:00,0.165,0.152,0.244,0.237,0.241,0.129,0.080,��쓌,2.4,��
2020/07/21,08:10,0.168,0.150,0.247,0.235,0.241,0.130,0.080,��쓌,2.3,��
2020/07/21,08:20,0.167,0.152,0.244,0.237,0.238,0.131,0.080,��쓌,2.2,��
2020/07/21,08:30,0.166,0.152,0.246,0.236,0.243,0.130,0.080,��쓌,2.9,��
2020/07/21,08:40,0.168,0.152,0.246,0.235,0.242,0.130,0.079,��쓌,2.4,��
2020/07/21,08:50,0.166,0.152,0.244,0.237,0.239,0.130,0.080,��쓌,2.7,��
2020/07/21,09:00,0.167,0.151,0.247,0.236,0.243,0.130,0.080,��쓌,2.5,��
2020/07/21,09:10,0.169,0.152,0.247,0.236,0.241,0.130,0.079,��쓌,2.6,��
2020/07/21,09:20,0.166,0.153,0.245,0.238,0.239,0.130,0.080,��쓌,2.6,��
2020/07/21,09:30,0.166,0.151,0.248,0.235,0.243,0.131,0.080,��쓌,2.8,��
2020/07/21,09:40,0.168,0.151,0.248,0.237,0.242,0.130,0.080,��쓌,2.4,��
2020/07/21,09:50,0.166,0.152,0.244,0.239,0.240,0.130,0.081,��,3.0,��
2020/07/21,10:00,0.166,0.151,0.246,0.236,0.240,0.130,0.080,��쓌,3.2,��
2020/07/21,10:10,0.168,0.151,0.246,0.234,0.241,0.131,0.080,��쓌,3.7,��
2020/07/21,10:20,0.167,0.153,0.246,0.238,0.240,0.130,0.080,��쓌,2.9,��
2020/07/21,10:30,0.166,0.151,0.246,0.237,0.240,0.131,0.080,��,2.8,��
2020/07/21,10:40,0.168,0.151,0.248,0.236,0.242,0.131,0.080,��쓌,2.9,��
2020/07/21,10:50,0.167,0.153,0.246,0.239,0.242,0.130,0.079,��쓌,3.2,��
2020/07/21,11:00,0.165,0.152,0.244,0.238,0.239,0.130,0.080,��쓌,3.6,��
2020/07/21,11:10,0.167,0.151,0.247,0.235,0.239,0.130,0.080,��쓌,3.8,��
2020/07/21,11:20,0.168,0.152,0.248,0.237,0.242,0.130,0.080,��쓌,3.6,��
2020/07/21,11:30,0.167,0.152,0.245,0.239,0.242,0.129,0.081,��쓌,3.9,��
2020/07/21,11:40,0.168,0.151,0.247,0.237,0.239,0.131,0.080,��쓌,3.4,��
2020/07/21,11:50,0.169,0.153,0.248,0.236,0.242,0.130,0.080,��쓌,3.2,��
2020/07/21,12:00,0.167,0.153,0.246,0.239,0.242,0.130,0.080,��쓌,3.1,��
2020/07/21,12:10,0.166,0.152,0.248,0.236,0.240,0.131,0.080,�쓌,3.6,��
2020/07/21,12:20,0.168,0.152,0.249,0.236,0.239,0.130,0.080,�쓌,3.4,��
2020/07/21,12:30,0.167,0.153,0.246,0.239,0.243,0.130,0.080,��쓌,3.9,��
2020/07/21,12:40,0.166,0.152,0.246,0.238,0.241,0.131,0.080,�쓌,3.3,��
2020/07/21,12:50,0.169,0.153,0.248,0.235,0.240,0.129,0.080,��쓌,3.1,��
2020/07/21,13:00,0.166,0.154,0.247,0.238,0.243,0.130,0.081,��쓌,2.6,��
2020/07/21,13:10,0.166,0.151,0.246,0.236,0.242,0.131,0.080,�쓌,2.7,��
2020/07/21,13:20,0.168,0.152,0.250,0.236,0.240,0.131,0.080,��쓌,4.1,��
2020/07/21,13:30,0.167,0.153,0.247,0.238,0.243,0.131,0.080,��쓌,2.8,��
2020/07/21,13:40,0.166,0.152,0.246,0.237,0.243,0.131,0.081,��쓌,2.4,��
2020/07/21,13:50,0.168,0.152,0.250,0.236,0.240,0.130,0.080,��쓌,2.7,��
2020/07/21,14:00,0.167,0.153,0.246,0.239,0.241,0.130,0.081,��쓌,2.8,��
2020/07/21,14:10,0.167,0.151,0.246,0.237,0.243,0.132,0.080,��쓌,3.2,��
2020/07/21,14:20,0.167,0.153,0.248,0.236,0.240,0.131,0.080,��쓌,3.1,��
2020/07/21,14:30,0.168,0.153,0.246,0.239,0.241,0.130,0.081,��쓌,2.9,��
2020/07/21,14:40,0.167,0.151,0.247,0.238,0.243,0.130,0.081,��쓌,3.3,��
2020/07/21,14:50,0.168,0.153,0.248,0.237,0.241,0.130,0.079,��쓌,3.2,��
2020/07/21,15:00,0.168,0.151,0.247,0.240,0.240,0.131,0.080,��쓌,2.2,��
2020/07/21,15:10,0.167,0.152,0.247,0.237,0.244,0.130,0.081,��쓌,3.6,��
2020/07/21,15:20,0.168,0.154,0.249,0.239,0.242,0.131,0.080,��쓌,3.2,��
2020/07/21,15:30,0.167,0.151,0.246,0.239,0.242,0.131,0.080,��쓌,2.9,��
2020/07/21,15:40,0.166,0.152,0.247,0.237,0.243,0.131,0.080,��,2.9,��
2020/07/21,15:50,0.168,0.153,0.248,0.238,0.242,0.130,0.080,��쓌,3.8,��
2020/07/21,16:00,0.168,0.151,0.246,0.239,0.240,0.131,0.081,��쓌,3.8,��
2020/07/21,16:10,0.166,0.153,0.247,0.236,0.244,0.131,0.081,��쓌,3.7,��
2020/07/21,16:20,0.169,0.153,0.249,0.238,0.242,0.130,0.081,��쓌,3.1,��
2020/07/21,16:30,0.167,0.152,0.246,0.239,0.239,0.131,0.081,��쓌,3.2,��
2020/07/21,16:40,0.168,0.152,0.248,0.236,0.243,0.130,0.080,��쓌,3.0,�L
2020/07/21,16:50,0.169,0.152,0.248,0.239,0.242,0.130,0.080,��쓌,3.1,�L
2020/07/21,17:00,0.166,0.153,0.247,0.238,0.241,0.131,0.081,��쓌,2.8,��
2020/07/21,17:10,0.168,0.153,0.248,0.237,0.242,0.131,0.080,��쓌,3.1,��
2020/07/21,17:20,0.168,0.152,0.247,0.240,0.240,0.130,0.080,��,3.1,��
2020/07/21,17:30,0.167,0.153,0.247,0.236,0.243,0.131,0.081,��쓌,2.5,��
2020/07/21,17:40,0.168,0.151,0.248,0.239,0.243,0.131,0.080,��,2.6,��
2020/07/21,17:50,0.167,0.153,0.247,0.238,0.239,0.132,0.080,��,2.5,��
2020/07/21,18:00,0.167,0.152,0.249,0.236,0.244,0.131,0.080,��,2.9,��
2020/07/21,18:10,0.169,0.152,0.249,0.240,0.241,0.131,0.080,��,3.0,��
2020/07/21,18:20,0.167,0.153,0.247,0.237,0.241,0.131,0.080,��쓌,3.5,��
2020/07/21,18:30,0.168,0.152,0.248,0.237,0.245,0.132,0.080,��쓌,3.2,��
2020/07/21,18:40,0.167,0.152,0.247,0.239,0.242,0.130,0.080,��쓌,2.9,��
2020/07/21,18:50,0.167,0.153,0.247,0.236,0.240,0.131,0.080,��쓌,1.9,��
2020/07/21,19:00,0.168,0.152,0.249,0.238,0.243,0.131,0.080,��쓌,2.5,��
2020/07/21,19:10,0.167,0.153,0.246,0.239,0.241,0.131,0.081,��쓌,2.3,��
2020/07/21,19:20,0.167,0.153,0.250,0.236,0.241,0.131,0.080,��쓌,2.7,��
2020/07/21,19:30,0.169,0.152,0.249,0.238,0.243,0.132,0.079,��,2.0,��
2020/07/21,19:40,0.167,0.153,0.246,0.236,0.240,0.131,0.081,��,1.7,��
2020/07/21,19:50,0.167,0.152,0.249,0.238,0.243,0.130,0.080,��쓌,2.4,��
2020/07/21,20:00,0.168,0.152,0.246,0.240,0.243,0.131,0.081,��쓌,2.9,��
2020/07/21,20:10,0.167,0.153,0.247,0.236,0.240,0.131,0.080,��쓌,3.0,��
2020/07/21,20:20,0.167,0.152,0.247,0.238,0.244,0.131,0.080,��쓌,2.7,��
2020/07/21,20:30,0.168,0.153,0.246,0.237,0.241,0.131,0.080,��쓌,3.5,��
2020/07/21,20:40,0.167,0.152,0.249,0.237,0.240,0.131,0.081,��,3.5,��
2020/07/21,20:50,0.169,0.153,0.248,0.238,0.243,0.132,0.080,��,1.9,��
2020/07/21,21:00,0.168,0.153,0.246,0.236,0.241,0.130,0.081,��쐼,0.8,��
2020/07/21,21:10,0.168,0.152,0.249,0.238,0.243,0.131,0.080,��쐼,2.2,��
2020/07/21,21:20,0.169,0.153,0.247,0.239,0.241,0.131,0.080,��,2.5,��
2020/07/21,21:30,0.166,0.153,0.247,0.236,0.241,0.130,0.080,��,2.1,��
2020/07/21,21:40,0.168,0.153,0.248,0.239,0.243,0.131,0.080,��,1.7,��
2020/07/21,21:50,0.169,0.152,0.246,0.237,0.242,0.131,0.081,��,2.4,��
2020/07/21,22:00,0.168,0.153,0.249,0.238,0.240,0.131,0.082,��쐼,2.6,��
2020/07/21,22:10,0.169,0.153,0.247,0.240,0.243,0.132,0.080,��,2.2,��
2020/07/21,22:20,0.167,0.152,0.247,0.237,0.242,0.132,0.080,��,1.3,��
2020/07/21,22:30,0.168,0.154,0.250,0.238,0.242,0.131,0.081,��쐼,0.6,��
2020/07/21,22:40,0.168,0.153,0.247,0.238,0.244,0.132,0.081,��쐼,1.7,��
2020/07/21,22:50,0.166,0.153,0.249,0.238,0.242,0.132,0.082,��쐼,1.5,��
2020/07/21,23:00,0.168,0.153,0.248,0.237,0.243,0.132,0.081,��,1.3,��
2020/07/21,23:10,0.169,0.153,0.248,0.236,0.244,0.132,0.081,-,CALM,��
2020/07/21,23:20,0.167,0.154,0.248,0.239,0.240,0.131,0.081,-,CALM,��
2020/07/21,23:30,0.169,0.153,0.247,0.239,0.245,0.132,0.081,�k��,0.6,��
2020/07/21,23:40,0.167,0.153,0.249,0.236,0.243,0.132,0.081,�k�k��,0.8,��
2020/07/21,23:50,0.168,0.153,0.248,0.240,0.242,0.130,0.081,-,CALM,�L
